Location: Cahas Mountain Overlook
(37.0833°N, 80.1000°W)
Time: 18:50:43
(UTC-05:00)

Vanguard 3 - Pass Details

Date: 12 December 2023
Orbit: 508 x 3239 km, 33.4° (Epoch: 23 February)

Event Time Altitude Azimuth Distance (km) Brightness Sun altitude
Rises 17:38:18 0° 217° (SW) 7,079 13.2 -7.0°
Reaches altitude 10° 17:43:26 10° 211° (SSW) 6,150 12.5 -8.0°
Maximum altitude 18:00:56 41° 150° (SSE) 3,813 10.4 -11.2°
Enters shadow 18:13:28 13° 89° (E) 4,682 10.4 -13.5°
